Погода в Багане

Россия / Самарская область     54°21′19″N   51°24′20″E
темп.,
°C
ветер,
м/с
пор.,
м/с
влажн.,
%
обл.,
%
осадки,
мм/ч
давл.,
гПа
погр.,
м
14 мая, пт
пт1401:00+17юв35625 0.0 102463
04:00+15юв366132 0.0 102485
07:00+17ююв31069100 0.4 1024252
10:00+23ююв69423 0.8 1023538
13:00+26ю79349 0.0 10231070
16:00+28ю6934100 0.0 10221703
19:00+23ююв4105236 0.0 1021223
22:00+19ююв22560 0.0 102216
15 мая, сб
сб1501:00+17ююв22575 0.0 102215
04:00+15ююв225577 0.0 102214
07:00+18ююв285410 0.0 1022214
10:00+24ю583717 0.0 1022454
13:00+28ююз67309 0.0 1022961
16:00+29ююз57305 0.0 10211626
19:00+25ю33465 0.0 102030
22:00+20ююв22495 0.0 102012
16 мая, вс
вс1601:00+18ююв22515 0.0 102011
04:00+16юв22525 0.0 102111
07:00+19юв26555 0.0 1021163
10:00+25ю58413 0.0 1020480
13:00+29ю58333 0.0 10201668
16:00+30ююз683131 0.0 10183631
19:00+26зюз224633 0.0 101812
22:00+21ююз11505 0.0 101811
17 мая, пн
пн1701:00+18ююв225730 0.0 101911
04:00+19ю345079 0.0 101957
07:00+20ююв2959100 0.0 1019222
10:00+25ююз3545100 0.0 1020372
13:00+29юз3435100 0.0 10191123
16:00+29з233098 0.0 10182237
19:00+19ссз91465100 0.9 1019242
22:00+18ю226697 1.8 101925
18 мая, вт
вт1801:00+19ю225760 0.0 101811
04:00+18вюв116230 0.1 101911
07:00+21ююв12575 0.0 101890
10:00+26ю33434 0.0 1018527
13:00+29юз34325 0.0 10181812
16:00+30юз232419 0.0 10173247
19:00+27с113744 0.0 101711
22:00+20вюв6135596 0.0 1018267